FW2830 Weather Reports


time (UTC)temp
F
wind
direction
speed
knots
gust
knots
rain 1hr
in
rain 24hr
in
rain mn
in
humidity
%
barometer
mb
20260504060104 39 207 5.2 14.8 0.02 0.71 0.06 100 973.5
20260504044539 38 144 8.7 18.2 0.02 0.68 0.03 100 975.2
20260504043037 38 132 3.5 17.4 0.02 0.67 0.02 100 976.4
20260504041531 39 116 10.4 18.2 0.02 0.66 0.02 100 976.8
20260504040028 39 188 6.1 17.4 0.01 0.65 0.01 100 978.4
20260504034524 39 214 2.6 10.4 0.01 0.65 0.01 100 978.8
20260504033019 39 165 9.6 16.5 0.00 0.65 0.00 100 979.6
20260504031516 39 181 4.3 13.9 0.00 0.65 0.00 100 980.2
20260504030011 40 212 5.2 13.0 0.00 0.65 0.00 100 980.8
20260504024511 40 169 7.8 16.5 0.01 0.65 0.65 100 981.3
20260504023006 41 191 2.6 22.6 0.01 0.65 0.65 100 981.8
20260504021504 41 139 6.1 14.8 0.02 0.65 0.65 100 982.5
20260504020002 41 168 3.5 8.7 0.03 0.65 0.65 100 982.6
20260504014559 39 23 0.0 3.5 0.05 0.64 0.64 100 983.6
20260504013054 38 21 0.9 5.2 0.07 0.64 0.64 100 984.4
20260504011552 38 21 2.6 7.0 0.07 0.62 0.62 100 985.2
20260504010048 38 15 6.1 12.2 0.09 0.61 0.61 100 986.4
20260504004545 37 31 4.3 13.9 0.09 0.59 0.59 100 987.3
20260504003043 38 61 8.7 19.1 0.13 0.56 0.56 100 988.0
20260504001538 37 81 8.7 17.4 0.18 0.55 0.55 100 989.2
20260504000042 37 60 7.0 14.8 0.19 0.52 0.52 100 989.6
20260503234533 37 65 9.6 18.2 0.20 0.50 0.50 100 989.9
20260503233036 37 39 7.0 19.1 0.14 0.43 0.43 100 991.2
20260503231524 37 43 7.8 17.4 0.10 0.37 0.37 100 992.4
20260503230021 36 54 6.1 15.6 0.08 0.33 0.33 100 993.4
20260503224526 36 51 7.0 14.8 0.08 0.31 0.31 100 994.4
20260503223014 36 39 5.2 18.2 0.11 0.28 0.28 100 995.1
20260503221511 36 77 8.7 15.6 0.12 0.27 0.27 100 995.6
20260503220018 36 85 6.1 13.0 0.16 0.25 0.25 100 996.3
20260503214510 36 41 8.7 15.6 0.13 0.22 0.22 100 996.5
20260503213008 35 29 4.3 14.8 0.10 0.18 0.18 100 995.9
20260503211505 35 42 6.1 12.2 0.06 0.14 0.14 100 996.9
20260503210100 35 29 6.1 16.5 0.02 0.09 0.09 100 998.0
20260503204558 35 71 7.8 15.6 0.02 0.09 0.09 99 998.5
20260503203056 35 74 5.2 13.9 0.02 0.08 0.08 99 999.8
20260503201552 35 86 6.1 16.5 0.02 0.08 0.08 99 1000.4
20260503200049 35 85 5.2 13.0 0.04 0.07 0.07 98 1001.0
20260503194550 35 68 5.2 13.0 0.06 0.07 0.07 98 1001.6
20260503193044 35 48 6.1 13.0 0.06 0.06 0.06 97 1002.4
20260503191540 36 82 4.3 11.3 0.06 0.06 0.06 97 1003.1
20260503190042 37 360 4.3 9.6 0.03 0.03 0.03 96 1003.6
20260503184553 37 55 3.5 8.7 0.01 0.01 0.01 95 1005.2
20260503183035 38 58 4.3 11.3 0.00 0.00 0.00 93 1005.5
20260503181533 38 22 4.3 9.6 0.00 0.00 0.00 92 1005.9
20260503180034 39 69 2.6 7.8 0.00 0.00 0.00 92 1007.0
20260503174531 39 45 1.7 8.7 0.00 0.00 0.00 91 1007.2
20260503173032 40 71 5.2 8.7 0.00 0.00 0.00 89 1008.0
20260503171521 40 83 5.2 9.6 0.00 0.00 0.00 89 1008.4
20260503130151 47 85 1.7 7.0 0.00 0.00 0.00 79 1012.3
20260503081602 35 203 0.9 3.5 0.00 0.02 0.00 100 1015.5
20260503080108 35 203 2.6 5.2 0.00 0.02 0.00 100 1015.5
20260503071607 34 203 2.6 6.1 0.00 0.04 0.00 100 1015.7